Starlink 30568

operational
NORAD ID: 58051 Int'l Des: 2023-158 Owner: SPXS Country: US Constellation: starlink
LEOCIRCULAR

Starlink 30568について

説明を読み込み中...

リアルタイム位置

3D地球を読み込み中...

次回通過

高度履歴

Altitude vs Time

uPlot chart will show altitude changes over time

軌道要素

1 58051U 23158A 25354.28627262 -.00001251 00000-0 -77533-4 0 9992
2 58051 43.0052 102.0745 0001318 273.5454 86.5238 15.02539301121585
Epoch: Dec 20, 2025 • Age: 21 hours

現在のステータス

高度 559.7 km
速度 7.59 km/s
衛星直下点 26.75°N, 17.04°W
打ち上げ日 Oct 13, 2023
運用期間 2.1 years
タイプ internet

技術仕様

分類 Payload
質量 730.00 kg
乾燥質量 700.00 kg
総質量 730.00 kg
長さ 0.30 m
直径 4.10 m
スパン 29.00 m
形状 Box + pan
製造者 SPXS
バスタイプ Starlink V2M
フェーズステータス In Orbit
所有者/国 SPXS/US

大規模コンステレーション

Loading constellations...